Location: East Guldeford
(50.9500°N, 0.7500°E)
Time: 17:06:48
(UTC+00:00)

Meteor 1-27 Rocket - Pass Details

Date: 12 May 2021
Orbit: 830 x 910 km, 81.3° (Epoch: 15 June)

Event Time Altitude Azimuth Distance (km) Brightness Sun altitude
Exits shadow 21:52:08 18° 184° (S) 2,061 5.2 -15.7°
Maximum altitude 21:56:38 79° 99° (E) 924 3.8 -16.1°
Drops below altitude 10° 22:02:35 10° 15° (NNE) 2,605 6.9 -16.5°
Sets 22:05:05 0° 14° (NNE) 3,554 7.7 -16.7°
